This is the latest recevied weather packets stored in our database for station/object WK7G. If no packets are shown the sender has not sent any weather packets the latest 10 day(s).
| Time | Temp. | Humidity | Pressure | Rain* | Wind** | Luminosity | Snow |
|---|---|---|---|---|---|---|---|
| 1777980732 | 5.56° C | 61% | 1004.6 hPa | 0 mm | - | 0 W/m² | - |
| 1777980428 | 5.56° C | 59% | 1004.8 hPa | 0 mm | - | 0 W/m² | - |
| 1777980126 | 5.56° C | 66% | 1004.9 hPa | 0 mm | - | 0 W/m² | - |
| 1777979825 | 5.56° C | 68% | 1004.6 hPa | 0 mm | - | 0 W/m² | - |
| 1777979521 | 5.56° C | 68% | 1004.5 hPa | 0 mm | - | 0 W/m² | - |
| 1777979218 | 5.56° C | 72% | 1004.4 hPa | 0 mm | - | 0 W/m² | - |
| 1777978915 | 5° C | 72% | 1004.9 hPa | 0 mm | - | 0 W/m² | - |
| 1777978612 | 5° C | 71% | 1004.9 hPa | 0 mm | - | 0 W/m² | - |
| 1777978307 | 5° C | 70% | 1004.6 hPa | 0 mm | - | 0 W/m² | - |
| 1777978004 | 5.56° C | 69% | 1004.8 hPa | 0 mm | - | 0 W/m² | - |
| 1777977702 | 5.56° C | 67% | 1004.3 hPa | 0 mm | - | 0 W/m² | - |
| 1777977398 | 5.56° C | 68% | 1004.5 hPa | 0 mm | - | 0 W/m² | - |
| 1777977096 | 6.11° C | 68% | 1004.4 hPa | 0 mm | - | 0 W/m² | - |
| 1777976793 | 5.56° C | 68% | 1004.5 hPa | 0 mm | - | 0 W/m² | - |
| 1777976491 | 6.11° C | 69% | 1004.8 hPa | 0 mm | - | 0 W/m² | - |
| 1777976190 | 6.11° C | 68% | 1004.4 hPa | 0 mm | - | 0 W/m² | - |
| 1777975885 | 6.11° C | 68% | 1004.6 hPa | 0 mm | - | 0 W/m² | - |
| 1777975581 | 6.11° C | 65% | 1004.6 hPa | 0 mm | - | 0 W/m² | - |
| 1777975279 | 6.67° C | 65% | 1004.4 hPa | 0 mm | - | 0 W/m² | - |
| 1777974975 | 6.67° C | 64% | 1004.6 hPa | 0 mm | - | 0 W/m² | - |
| 1777974671 | 6.11° C | 64% | 1005 hPa | 0 mm | - | 0 W/m² | - |
| 1777974368 | 6.67° C | 64% | 1004.8 hPa | 0 mm | - | 0 W/m² | - |
| 1777974064 | 6.67° C | 61% | 1004.9 hPa | 0 mm | - | 0 W/m² | - |
| 1777973760 | 6.67° C | 63% | 1004.6 hPa | 0 mm | - | 0 W/m² | - |
| 1777973458 | 6.67° C | 61% | 1004.8 hPa | 0 mm | - | 0 W/m² | - |
* Rain latest hour (hover to see other rain measurements)
** Current wind speed in m/s (hover to see current wind gust speed)